Location: Gorze? G�rny
(49.8500°N, 19.5000°E)
Time: 19:07:00
(UTC+00:00)

Okean 1 - Visible Passes

Search period start: 19 September 2021 00:00
Search period end: 29 September 2021 00:00
Orbit: 536 x 555 km, 82.5° (Epoch: 18 September)

Date Brightness Start Highest point End Pass type
(mag) Time Alt. Az. Time Alt. Az. Time Alt. Az.
20 Sep 5.2 03:49:01 10° SSE 03:52:38 35° E 03:56:17 10° NNE visible
21 Sep 5.1 03:43:22 10° SSE 03:47:01 37° E 03:50:42 10° NNE visible
22 Sep 4.9 03:37:42 10° SSE 03:41:24 39° E 03:45:07 10° NNE visible
23 Sep 4.7 03:32:03 10° SSE 03:35:47 42° E 03:39:32 10° NNE visible
24 Sep 4.6 03:26:24 10° SSE 03:30:10 44° E 03:33:57 10° NNE visible
25 Sep 4.4 03:20:45 10° SSE 03:24:32 46° E 03:28:21 10° NNE visible
26 Sep 4.3 03:15:06 10° S 03:18:55 49° E 03:22:46 10° NNE visible
27 Sep 4.2 03:09:28 10° S 03:13:17 52° E 03:17:11 10° NNE visible
28 Sep 4.0 03:03:49 10° S 03:07:40 55° E 03:11:34 10° NNE visible
